Home > Weather > Alajuela > Past weeks

Flag for Costa Rica Past Weather in Alajuela, Costa Rica — Yesterday and Last 2 Weeks

Now
72 °F

Passing clouds.


Feels Like: 74 °F
Forecast: 69 / 81 °F
Wind: 13 mph from East

Location: Juan Santamaria

Current Time: Jun 26, 2016 at 2:11:33 AM

Latest Report: Jun 26, 2016 at 1:00 AM


Visibility: N/A

Pressure: 29.98 "Hg (26.84 "Hg at 955m altitude)

Humidity: 73%

Dew Point: 63 °F

Location of AlajuelaLocation

Past Weather in Alajuela — Graph

°F

Alajuela Temperature Yesterday

Maximum temperature yesterday: 77 °F (at 8:00 AM)
Minimum temperature yesterday: 68 °F (at 2:00 AM)
Average temperature yesterday: 72 °F

High & Low Weather Summary for the Past Weeks

 TemperatureHumidityPressure
High84 °F (Jun 19, 2:00 PM)100% (Jun 16, 4:00 PM)30.14 "Hg (Jun 16, 4:00 PM)
Low64 °F (Jun 16, 2:00 AM)37% (Jun 23, 11:00 AM)29.94 "Hg (Jun 18, 4:00 PM)
Average72 °F78%30.05 "Hg
* Reported Jun 11 1:00 AM — Jun 26 1:00 AM, Alajuela, Weather by CustomWeather, © 2016

Note: Actual official high and low records may vary slightly from our data, if they occured in-between our weather recording intervals... More about our weather records

Advertising

Alajuela Weather History for the Previous 24 Hours

Scroll right to see more
 ConditionsComfort  
Time TempWeatherWind HumidityBarometerVisibility
1:00 AM
Sun, Jun 26
72 °FPassing clouds.13 mph73%29.98 "HgN/A
12:00 AM72 °FPassing clouds.9 mph73%30.00 "HgN/A
11:00 PM
Sat, Jun 25
70 °FPassing clouds.5 mph78%30.01 "HgN/A
10:00 PM70 °FPassing clouds.No wind88%30.02 "HgN/A
9:00 PM70 °FPassing clouds.6 mph94%30.03 "HgN/A
8:00 PM70 °FFog.3 mph94%30.02 "Hg5 mi
7:00 PM70 °FPassing clouds.3 mph94%30.01 "HgN/A
6:00 PM72 °FPartly cloudy.6 mph88%29.99 "HgN/A
5:00 PM73 °FBroken clouds.13 mph83%29.97 "HgN/A
4:00 PM75 °FBroken clouds.9 mph78%29.97 "HgN/A
3:00 PM75 °FBroken clouds.10 mph83%29.98 "HgN/A
2:00 PM75 °FPartly sunny.5 mph78%30.00 "HgN/A
1:00 PM75 °FPartly sunny.6 mph78%30.02 "HgN/A
12:00 PM75 °FPartly sunny.7 mph78%30.02 "HgN/A
11:00 AM75 °FPartly sunny.6 mph69%30.04 "HgN/A
10:00 AM75 °FScattered clouds.7 mph65%30.04 "HgN/A
9:00 AM75 °FMild.9 mph65%30.04 "HgN/A
8:00 AM77 °FScattered clouds.7 mph65%30.02 "HgN/A
7:00 AM72 °FScattered clouds.9 mph73%29.97 "HgN/A
6:00 AM72 °FPartly sunny.7 mph73%29.97 "HgN/A
5:00 AM70 °FPassing clouds.5 mph78%29.98 "HgN/A
4:00 AM68 °FClear.7 mph83%29.99 "Hg10 mi
3:00 AM68 °FSmoke.1 mph88%30.01 "HgN/A
2:00 AM68 °FPassing clouds.1 mph94%30.03 "HgN/A
Weather by CustomWeather, © 2016

See weather overviewHow to use our weather pages